Radiation Dose at Monitoring Post of Fukushima Daini Nuclear Power Station
Date,Time,MP-1(microSv/h),MP-2(microSv/h),MP-3(microSv/h),MP-4(microSv/h),MP-5(microSv/h),MP-6(microSv/h),MP-7(microSv/h),Wind Direction,Wind Velocity(m/s),Rain
2021/09/25,00:00,0.161,0.147,0.232,0.226,0.232,0.125,0.080,north-northwest,7.9,No
2021/09/25,00:10,0.161,0.148,0.234,0.227,0.230,0.125,0.080,north-northwest,7.5,No
2021/09/25,00:20,0.160,0.147,0.232,0.227,0.232,0.126,0.080,north-northwest,6.9,No
2021/09/25,00:30,0.162,0.147,0.234,0.225,0.231,0.125,0.080,north-northwest,7.0,Yes
2021/09/25,00:40,0.159,0.147,0.234,0.227,0.230,0.126,0.080,north-northwest,6.0,Yes
2021/09/25,00:50,0.162,0.148,0.233,0.226,0.231,0.125,0.079,north-northwest,7.5,No
2021/09/25,01:00,0.161,0.147,0.233,0.227,0.230,0.125,0.079,north-northwest,6.1,Yes
2021/09/25,01:10,0.162,0.149,0.232,0.226,0.232,0.125,0.080,north-northwest,5.9,Yes
2021/09/25,01:20,0.162,0.146,0.234,0.227,0.230,0.125,0.080,north-northwest,5.6,No
2021/09/25,01:30,0.160,0.149,0.231,0.226,0.231,0.125,0.079,north-northwest,5.5,Yes
2021/09/25,01:40,0.163,0.148,0.235,0.227,0.232,0.126,0.080,north-northwest,4.6,Yes
2021/09/25,01:50,0.160,0.148,0.233,0.227,0.230,0.126,0.081,north,5.5,Yes
2021/09/25,02:00,0.163,0.147,0.235,0.226,0.234,0.127,0.081,north-northwest,5.7,Yes
2021/09/25,02:10,0.162,0.148,0.234,0.226,0.230,0.126,0.080,north,7.5,Yes
2021/09/25,02:20,0.163,0.149,0.233,0.224,0.231,0.126,0.082,north-northwest,7.8,Yes
2021/09/25,02:30,0.162,0.149,0.233,0.226,0.230,0.128,0.082,north-northwest,7.2,Yes
2021/09/25,02:40,0.163,0.148,0.233,0.225,0.232,0.127,0.082,north-northwest,6.7,Yes
2021/09/25,02:50,0.163,0.149,0.232,0.225,0.229,0.127,0.082,north-northwest,6.9,Yes
2021/09/25,03:00,0.163,0.150,0.234,0.224,0.232,0.128,0.083,north-northwest,6.8,Yes
2021/09/25,03:10,0.162,0.151,0.234,0.224,0.231,0.128,0.083,northwest,7.4,Yes
2021/09/25,03:20,0.162,0.150,0.232,0.224,0.232,0.128,0.083,northwest,7.0,Yes
2021/09/25,03:30,0.161,0.149,0.233,0.224,0.230,0.127,0.082,northwest,7.9,Yes
2021/09/25,03:40,0.162,0.149,0.232,0.222,0.231,0.127,0.082,northwest,8.4,Yes
2021/09/25,03:50,0.160,0.148,0.231,0.222,0.229,0.125,0.081,northwest,8.1,Yes
2021/09/25,04:00,0.160,0.148,0.231,0.222,0.230,0.125,0.081,northwest,8.1,Yes
2021/09/25,04:10,0.159,0.147,0.230,0.223,0.229,0.125,0.081,northwest,7.2,Yes
2021/09/25,04:20,0.161,0.148,0.228,0.221,0.230,0.125,0.081,northwest,7.1,Yes
2021/09/25,04:30,0.160,0.146,0.231,0.221,0.228,0.125,0.080,northwest,7.1,Yes
2021/09/25,04:40,0.160,0.147,0.229,0.222,0.230,0.125,0.080,northwest,6.3,Yes
2021/09/25,04:50,0.159,0.146,0.230,0.220,0.229,0.124,0.080,northwest,6.3,Yes
2021/09/25,05:00,0.159,0.147,0.228,0.222,0.230,0.125,0.081,northwest,6.6,Yes
2021/09/25,05:10,0.158,0.146,0.230,0.220,0.228,0.123,0.080,northwest,6.4,Yes
2021/09/25,05:20,0.160,0.145,0.228,0.222,0.229,0.124,0.079,northwest,7.0,Yes
2021/09/25,05:30,0.158,0.144,0.229,0.219,0.226,0.124,0.079,northwest,6.3,Yes
2021/09/25,05:40,0.159,0.146,0.228,0.222,0.230,0.123,0.080,north-northwest,6.0,Yes
2021/09/25,05:50,0.159,0.145,0.228,0.219,0.227,0.123,0.080,northwest,5.6,Yes
2021/09/25,06:00,0.159,0.145,0.227,0.222,0.229,0.124,0.080,north-northwest,5.2,Yes
2021/09/25,06:10,0.159,0.147,0.229,0.219,0.227,0.124,0.079,north-northwest,5.6,Yes
2021/09/25,06:20,0.160,0.146,0.229,0.220,0.229,0.124,0.080,north-northwest,5.5,Yes
2021/09/25,06:30,0.158,0.146,0.228,0.219,0.226,0.123,0.079,north-northwest,5.8,No
2021/09/25,06:40,0.159,0.145,0.228,0.221,0.228,0.123,0.079,north-northwest,5.3,Yes
2021/09/25,06:50,0.158,0.146,0.227,0.219,0.226,0.124,0.079,north-northwest,4.9,Yes
2021/09/25,07:00,0.158,0.145,0.227,0.220,0.229,0.123,0.079,north-northwest,5.1,No
2021/09/25,07:10,0.158,0.145,0.227,0.218,0.228,0.123,0.079,northwest,5.1,No
2021/09/25,07:20,0.157,0.144,0.227,0.220,0.225,0.122,0.078,northwest,5.2,Yes
2021/09/25,07:30,0.157,0.144,0.226,0.219,0.228,0.123,0.078,north-northwest,5.7,Yes
2021/09/25,07:40,0.158,0.144,0.225,0.218,0.226,0.122,0.079,north-northwest,5.6,Yes
2021/09/25,07:50,0.158,0.144,0.227,0.220,0.229,0.122,0.079,north-northwest,5.4,Yes
2021/09/25,08:00,0.159,0.144,0.224,0.217,0.224,0.123,0.079,north-northwest,5.4,Yes
2021/09/25,08:10,0.157,0.143,0.227,0.219,0.227,0.123,0.078,north-northwest,4.6,No
2021/09/25,08:20,0.157,0.145,0.226,0.218,0.227,0.124,0.078,north-northwest,4.5,Yes
2021/09/25,08:30,0.159,0.144,0.226,0.219,0.225,0.123,0.079,north-northwest,4.3,Yes
2021/09/25,08:40,0.157,0.146,0.227,0.219,0.229,0.122,0.078,north,3.3,Yes
2021/09/25,08:50,0.161,0.147,0.226,0.219,0.228,0.125,0.080,north-northeast,3.3,Yes
2021/09/25,09:00,0.161,0.148,0.231,0.222,0.230,0.127,0.084,east,3.5,Yes
2021/09/25,09:10,0.163,0.149,0.229,0.224,0.233,0.130,0.087,east,5.6,Yes
2021/09/25,09:20,0.161,0.148,0.231,0.225,0.234,0.129,0.086,east-northeast,5.8,Yes
2021/09/25,09:30,0.161,0.148,0.230,0.222,0.235,0.130,0.085,east,5.9,Yes
2021/09/25,09:40,0.161,0.148,0.230,0.223,0.232,0.129,0.086,east-northeast,4.3,Yes
2021/09/25,09:50,0.160,0.147,0.229,0.222,0.233,0.128,0.085,east-northeast,5.1,Yes
2021/09/25,10:00,0.161,0.148,0.228,0.222,0.230,0.127,0.085,east-northeast,4.7,Yes
2021/09/25,10:10,0.159,0.147,0.228,0.222,0.233,0.127,0.085,east-northeast,4.5,Yes
2021/09/25,10:20,0.161,0.147,0.231,0.221,0.229,0.128,0.084,east-northeast,4.4,Yes
2021/09/25,10:30,0.158,0.147,0.228,0.221,0.230,0.127,0.082,east-northeast,4.2,Yes
2021/09/25,10:40,0.159,0.145,0.227,0.219,0.230,0.125,0.082,east-northeast,4.4,Yes
2021/09/25,10:50,0.158,0.146,0.227,0.220,0.228,0.126,0.082,east,4.2,Yes
2021/09/25,11:00,0.158,0.146,0.225,0.218,0.230,0.124,0.082,east-northeast,3.2,Yes
2021/09/25,11:10,0.158,0.146,0.227,0.221,0.227,0.125,0.082,east-northeast,3.2,Yes
2021/09/25,11:20,0.158,0.146,0.226,0.220,0.229,0.124,0.081,northeast,2.2,Yes
2021/09/25,11:30,0.160,0.146,0.227,0.219,0.228,0.124,0.081,north-northeast,1.9,Yes
2021/09/25,11:40,0.157,0.145,0.227,0.221,0.228,0.126,0.083,north,2.2,Yes
2021/09/25,11:50,0.158,0.146,0.226,0.218,0.229,0.126,0.084,north-northeast,2.0,Yes
2021/09/25,12:00,0.159,0.145,0.228,0.220,0.227,0.125,0.083,north-northwest,2.3,Yes
2021/09/25,12:10,0.157,0.144,0.226,0.218,0.227,0.124,0.082,north,1.9,Yes
2021/09/25,12:20,0.159,0.144,0.225,0.217,0.230,0.123,0.082,north-northwest,1.4,No
2021/09/25,12:30,0.157,0.144,0.226,0.218,0.225,0.124,0.080,north,1.5,No
2021/09/25,12:40,0.156,0.142,0.223,0.217,0.225,0.123,0.080,north-northwest,1.8,No
2021/09/25,12:50,0.157,0.144,0.226,0.217,0.227,0.122,0.079,north,1.5,No
2021/09/25,13:00,0.156,0.143,0.225,0.218,0.224,0.122,0.078,north-northwest,1.6,No
2021/09/25,13:10,0.157,0.143,0.224,0.216,0.227,0.122,0.079,north,2.4,Yes
2021/09/25,13:20,0.157,0.144,0.225,0.218,0.226,0.121,0.078,north-northwest,1.3,No
2021/09/25,13:30,0.156,0.143,0.225,0.218,0.224,0.122,0.078,north-northwest,2.3,No
2021/09/25,13:40,0.157,0.144,0.224,0.215,0.227,0.121,0.079,north-northwest,1.7,Yes
2021/09/25,13:50,0.157,0.144,0.225,0.219,0.225,0.121,0.078,north-northwest,1.8,Yes
2021/09/25,14:00,0.157,0.143,0.224,0.217,0.223,0.121,0.078,north-northwest,2.2,Yes
2021/09/25,14:10,0.157,0.143,0.226,0.215,0.227,0.120,0.078,north-northeast,1.7,Yes
2021/09/25,14:20,0.156,0.142,0.224,0.218,0.224,0.120,0.077,north-northeast,2.7,Yes
2021/09/25,14:30,0.158,0.144,0.225,0.216,0.225,0.122,0.078,northeast,2.3,Yes
2021/09/25,14:40,0.156,0.143,0.225,0.217,0.226,0.121,0.078,north,1.4,No
2021/09/25,14:50,0.156,0.143,0.225,0.218,0.224,0.122,0.078,north-northeast,2.2,Yes
2021/09/25,15:00,0.158,0.143,0.226,0.217,0.226,0.122,0.078,northeast,2.4,Yes
2021/09/25,15:10,0.157,0.143,0.224,0.218,0.226,0.120,0.078,north,1.5,Yes
2021/09/25,15:20,0.157,0.144,0.224,0.217,0.225,0.121,0.079,east-northeast,2.1,Yes
2021/09/25,15:30,0.156,0.143,0.225,0.219,0.228,0.122,0.078,northwest,1.2,Yes
2021/09/25,15:40,0.156,0.144,0.225,0.216,0.225,0.122,0.079,north,1.3,Yes
2021/09/25,15:50,0.156,0.144,0.226,0.217,0.227,0.124,0.079,west-northwest,1.3,Yes
2021/09/25,16:00,0.155,0.143,0.224,0.219,0.227,0.121,0.078,north-northeast,0.9,No
2021/09/25,16:10,0.158,0.143,0.226,0.217,0.226,0.123,0.078,east-northeast,1.2,Yes
2021/09/25,16:20,0.156,0.142,0.225,0.219,0.227,0.121,0.077,east-northeast,2.0,Yes
2021/09/25,16:30,0.157,0.144,0.226,0.216,0.226,0.122,0.078,east-northeast,3.5,No
2021/09/25,16:40,0.156,0.143,0.224,0.219,0.227,0.122,0.077,east,3.2,No
2021/09/25,16:50,0.156,0.143,0.225,0.217,0.225,0.122,0.077,east,3.2,No
2021/09/25,17:00,0.157,0.142,0.225,0.217,0.227,0.122,0.077,east,2.2,No
2021/09/25,17:10,0.155,0.144,0.224,0.217,0.225,0.121,0.078,east-northeast,2.4,Yes
2021/09/25,17:20,0.157,0.143,0.227,0.217,0.226,0.122,0.077,east,2.4,Yes
2021/09/25,17:30,0.156,0.143,0.225,0.218,0.226,0.122,0.079,northeast,0.8,Yes
2021/09/25,17:40,0.157,0.144,0.226,0.217,0.226,0.122,0.078,east,2.1,Yes
2021/09/25,17:50,0.157,0.144,0.225,0.218,0.227,0.121,0.078,east-northeast,1.7,Yes
2021/09/25,18:00,0.156,0.144,0.227,0.218,0.225,0.121,0.079,east,2.7,Yes
2021/09/25,18:10,0.158,0.145,0.225,0.220,0.228,0.122,0.078,east,1.3,Yes
2021/09/25,18:20,0.156,0.145,0.227,0.218,0.226,0.122,0.078,-,CALM,Yes
2021/09/25,18:30,0.158,0.145,0.226,0.219,0.228,0.122,0.078,-,CALM,Yes
2021/09/25,18:40,0.157,0.144,0.227,0.217,0.225,0.121,0.078,-,CALM,Yes
2021/09/25,18:50,0.158,0.145,0.226,0.219,0.227,0.122,0.078,south,0.9,Yes
2021/09/25,19:00,0.156,0.143,0.227,0.218,0.227,0.122,0.079,-,CALM,No
2021/09/25,19:10,0.158,0.144,0.225,0.219,0.226,0.121,0.078,southeast,1.3,Yes
2021/09/25,19:20,0.157,0.143,0.226,0.217,0.226,0.122,0.078,south,0.8,No
2021/09/25,19:30,0.157,0.143,0.224,0.218,0.226,0.123,0.078,south-southeast,0.6,No
2021/09/25,19:40,0.157,0.143,0.226,0.216,0.226,0.121,0.079,east,0.9,No
2021/09/25,19:50,0.157,0.145,0.225,0.218,0.225,0.122,0.078,-,CALM,Yes
2021/09/25,20:00,0.157,0.143,0.227,0.218,0.227,0.121,0.077,-,CALM,No
2021/09/25,20:10,0.157,0.144,0.224,0.219,0.224,0.122,0.077,east-southeast,1.4,Yes
2021/09/25,20:20,0.157,0.143,0.226,0.217,0.227,0.122,0.078,southeast,1.3,Yes
2021/09/25,20:30,0.157,0.145,0.225,0.217,0.225,0.121,0.078,southeast,2.6,Yes
2021/09/25,20:40,0.158,0.143,0.227,0.217,0.226,0.121,0.077,southeast,2.2,Yes
2021/09/25,20:50,0.157,0.144,0.226,0.218,0.225,0.122,0.078,east-southeast,1.7,No
2021/09/25,21:00,0.158,0.144,0.226,0.217,0.227,0.122,0.078,east,2.1,No
2021/09/25,21:10,0.157,0.145,0.224,0.217,0.226,0.121,0.078,east,1.5,No
2021/09/25,21:20,0.157,0.143,0.227,0.218,0.224,0.121,0.078,east-southeast,1.6,No
2021/09/25,21:30,0.156,0.143,0.225,0.216,0.226,0.122,0.077,east,2.5,No
2021/09/25,21:40,0.158,0.143,0.226,0.218,0.224,0.120,0.078,east-southeast,2.5,No
2021/09/25,21:50,0.158,0.143,0.225,0.217,0.226,0.122,0.078,east-southeast,3.5,No
2021/09/25,22:00,0.156,0.143,0.227,0.218,0.224,0.121,0.077,east-southeast,3.1,No
2021/09/25,22:10,0.158,0.144,0.223,0.215,0.226,0.122,0.078,east-southeast,3.8,No
2021/09/25,22:20,0.156,0.143,0.226,0.217,0.224,0.121,0.078,east-southeast,3.6,No
2021/09/25,22:30,0.157,0.144,0.224,0.217,0.226,0.122,0.078,east-southeast,3.2,No
2021/09/25,22:40,0.156,0.143,0.226,0.217,0.225,0.121,0.077,east-southeast,3.4,No
2021/09/25,22:50,0.157,0.145,0.224,0.216,0.225,0.122,0.077,east-southeast,3.4,No
2021/09/25,23:00,0.157,0.144,0.226,0.218,0.226,0.122,0.078,east-southeast,3.5,No
2021/09/25,23:10,0.157,0.144,0.226,0.216,0.224,0.121,0.078,east-southeast,4.1,No
2021/09/25,23:20,0.157,0.143,0.226,0.218,0.226,0.122,0.077,east-southeast,4.3,No
2021/09/25,23:30,0.157,0.143,0.225,0.217,0.224,0.121,0.077,east-southeast,4.5,No
2021/09/25,23:40,0.156,0.144,0.226,0.218,0.227,0.121,0.077,east,3.8,No
2021/09/25,23:50,0.156,0.145,0.225,0.217,0.225,0.121,0.077,east,3.6,No
